DW9882 Weather Reports


Display with metric or nautical units.
time (UTC)temp
F
wind
direction
speed
MPH
gust
MPH
rain 1hr
in
rain 24hr
in
rain mn
in
humidity
%
barometer
mb
20240725001710 89 28 0.0 0.0 0.00 0.00 0.00 23 1023.4
20240725001209 89 28 1.0 3.0 0.00 0.00 0.00 22 1023.4
20240725000709 89 28 0.0 0.0 0.00 0.00 0.00 21 1023.4
20240725000211 88 28 0.0 3.0 0.00 0.00 0.00 21 1023.5
20240724235710 88 28 1.0 3.0 0.00 0.00 0.00 20 1023.5
20240724235211 89 28 0.0 2.0 0.00 0.00 0.00 22 1023.6
20240724234709 89 28 1.0 3.0 0.00 0.00 0.00 21 1023.6
20240724234210 89 28 0.0 0.0 0.00 0.00 0.00 22 1023.6
20240724233209 90 28 0.0 0.0 0.00 0.00 0.00 19 1023.6
20240724232210 90 28 0.0 3.0 0.00 0.00 0.00 18 1023.6
20240724231209 91 28 1.0 3.0 0.00 0.00 0.00 19 1023.7
20240724230210 91 28 1.0 3.0 0.00 0.00 0.00 17 1023.6
20240724225709 91 11 2.0 5.0 0.00 0.00 0.00 16 1023.6
20240724225210 91 89 1.0 6.0 0.00 0.00 0.00 17 1023.6
20240724223709 92 1 2.0 3.0 0.00 0.00 0.00 15 1023.6
20240724223209 92 10 1.0 5.0 0.00 0.00 0.00 17 1023.5
20240724222710 92 30 4.0 6.0 0.00 0.00 0.00 15 1023.5
20240724222210 92 58 3.0 5.0 0.00 0.00 0.00 16 1023.5
20240724221710 92 56 1.0 3.0 0.00 0.00 0.00 16 1023.4
20240724221209 92 77 2.0 5.0 0.00 0.00 0.00 17 1023.5
20240724215709 94 52 4.0 10.0 0.00 0.00 0.00 16 1023.5
20240724215209 93 86 1.0 3.0 0.00 0.00 0.00 19 1023.5
20240724214710 93 53 0.0 3.0 0.00 0.00 0.00 20 1023.5
20240724214210 93 52 2.0 7.0 0.00 0.00 0.00 16 1023.6
20240724213710 93 42 3.0 6.0 0.00 0.00 0.00 17 1023.6
20240724213210 93 28 0.0 2.0 0.00 0.00 0.00 19 1023.6
20240724212710 93 28 0.0 3.0 0.00 0.00 0.00 20 1023.7
20240724212210 93 28 1.0 5.0 0.00 0.00 0.00 16 1023.7
20240724211709 93 9 2.0 3.0 0.00 0.00 0.00 18 1023.7
20240724211209 92 43 0.0 7.0 0.00 0.00 0.00 20 1023.6
20240724210709 92 63 2.0 6.0 0.00 0.00 0.00 18 1023.7
20240724210209 93 7 1.0 5.0 0.00 0.00 0.00 17 1023.7
20240724205709 93 142 0.0 3.0 0.00 0.00 0.00 17 1023.8
20240724205210 93 142 2.0 6.0 0.00 0.00 0.00 18 1023.7
20240724204209 93 109 1.0 3.0 0.00 0.00 0.00 19 1023.8
20240724203709 93 128 1.0 5.0 0.00 0.00 0.00 18 1023.8
20240724203210 92 22 1.0 3.0 0.00 0.00 0.00 20 1023.8
20240724202209 92 82 2.0 7.0 0.00 0.00 0.00 21 1024.0
20240724201710 92 28 1.0 9.0 0.00 0.00 0.00 20 1024.0
20240724201210 92 79 1.0 6.0 0.00 0.00 0.00 18 1024.0
20240724200710 92 90 2.0 3.0 0.00 0.00 0.00 17 1024.0
20240724200210 92 82 1.0 5.0 0.00 0.00 0.00 21 1024.0
20240724195709 92 292 1.0 3.0 0.00 0.00 0.00 17 1024.0
20240724195210 92 126 1.0 3.0 0.00 0.00 0.00 20 1024.1
20240724193710 91 109 0.0 2.0 0.00 0.00 0.00 22 1024.2
20240724193209 91 93 1.0 3.0 0.00 0.00 0.00 21 1024.2
20240724192211 90 82 1.0 3.0 0.00 0.00 0.00 18 1024.2
20240724191710 90 136 1.0 3.0 0.00 0.00 0.00 22 1024.3
20240724190710 90 93 2.0 6.0 0.00 0.00 0.00 20 1024.2
20240724190209 90 339 1.0 6.0 0.00 0.00 0.00 20 1024.2
20240724185709 90 73 1.0 3.0 0.00 0.00 0.00 21 1024.3
20240724185209 89 112 1.0 5.0 0.00 0.00 0.00 21 1024.3
20240724184709 89 151 0.0 1.0 0.00 0.00 0.00 22 1024.4
20240724184210 89 90 0.0 3.0 0.00 0.00 0.00 21 1024.4
20240724183709 89 105 0.0 1.0 0.00 0.00 0.00 23 1024.5
20240724183209 89 182 0.0 2.0 0.00 0.00 0.00 24 1024.5
20240724182709 88 69 0.0 2.0 0.00 0.00 0.00 24 1024.6
20240724182210 88 150 1.0 3.0 0.00 0.00 0.00 26 1024.6
20240724181709 87 67 0.0 1.0 0.00 0.00 0.00 27 1024.6
20240724181209 87 68 1.0 3.0 0.00 0.00 0.00 26 1024.6
20240724175710 86 84 0.0 3.0 0.00 0.00 0.00 29 1024.6
20240724175209 86 67 0.0 2.0 0.00 0.00 0.00 30 1024.6
20240724174710 86 90 0.0 1.0 0.00 0.00 0.00 34 1024.6
20240724174209 85 90 0.0 1.0 0.00 0.00 0.00 31 1024.6
20240724173209 84 3 0.0 1.0 0.00 0.00 0.00 32 1024.6
20240724172709 84 74 0.0 1.0 0.00 0.00 0.00 33 1024.7
20240724172209 84 74 0.0 1.0 0.00 0.00 0.00 32 1024.7
20240724171709 83 74 0.0 0.0 0.00 0.00 0.00 34 1024.7
20240724170710 83 74 0.0 0.0 0.00 0.00 0.00 34 1024.7
20240724170209 83 74 0.0 0.0 0.00 0.00 0.00 34 1024.8
20240724165709 82 74 0.0 0.0 0.00 0.00 0.00 35 1024.8
20240724164709 82 74 0.0 2.0 0.00 0.00 0.00 34 1024.8
20240724164209 81 18 0.0 0.0 0.00 0.00 0.00 36 1024.8
20240724163709 81 18 0.0 0.0 0.00 0.00 0.00 36 1024.9
20240724163213 81 18 0.0 1.0 0.00 0.00 0.00 37 1024.9
20240724162709 80 18 0.0 0.0 0.00 0.00 0.00 38 1024.9
20240724162209 80 18 0.0 0.0 0.00 0.00 0.00 38 1024.9
20240724161710 79 18 0.0 0.0 0.00 0.00 0.00 36 1024.9
20240724161209 79 18 0.0 0.0 0.00 0.00 0.00 37 1024.9
20240724160710 78 18 0.0 0.0 0.00 0.00 0.00 38 1024.9
20240724160209 78 18 0.0 0.0 0.00 0.00 0.00 39 1024.9
20240724155227 77 18 0.0 0.0 0.00 0.00 0.00 41 1024.9
20240724154721 77 18 0.0 0.0 0.00 0.00 0.00 43 1024.9
20240724153726 76 18 0.0 0.0 0.00 0.00 0.00 44 1025.0
20240724153209 75 18 0.0 0.0 0.00 0.00 0.00 42 1025.0
20240724151709 74 18 0.0 0.0 0.00 0.00 0.00 42 1025.1
20240724151209 74 18 0.0 0.0 0.00 0.00 0.00 42 1025.1
20240724150709 73 18 0.0 0.0 0.00 0.00 0.00 43 1025.1
20240724150209 73 18 0.0 0.0 0.00 0.00 0.00 45 1025.2
20240724145709 72 18 0.0 0.0 0.00 0.00 0.00 46 1025.2
20240724145209 72 18 0.0 0.0 0.00 0.00 0.00 47 1025.2
20240724144709 71 18 0.0 0.0 0.00 0.00 0.00 49 1025.2
20240724144209 70 18 0.0 0.0 0.00 0.00 0.00 50 1025.2
20240724143708 70 18 0.0 0.0 0.00 0.00 0.00 53 1025.2
20240724143209 69 18 0.0 0.0 0.00 0.00 0.00 53 1025.2
20240724142209 68 18 0.0 0.0 0.00 0.00 0.00 54 1025.1
20240724141709 67 18 0.0 0.0 0.00 0.00 0.00 52 1025.2
20240724141208 66 18 0.0 0.0 0.00 0.00 0.00 55 1025.1
20240724140709 66 18 0.0 0.0 0.00 0.00 0.00 60 1025.1
20240724140210 65 18 0.0 0.0 0.00 0.00 0.00 59 1025.0
20240724135709 64 18 0.0 0.0 0.00 0.00 0.00 59 1025.0
20240724135209 64 18 0.0 0.0 0.00 0.00 0.00 63 1024.9
20240724134709 63 18 0.0 0.0 0.00 0.00 0.00 66 1024.9
20240724134209 62 18 0.0 0.0 0.00 0.00 0.00 66 1024.9
20240724133709 61 18 0.0 0.0 0.00 0.00 0.00 68 1024.9
20240724133209 60 18 0.0 0.0 0.00 0.00 0.00 69 1024.9
20240724132709 59 18 0.0 0.0 0.00 0.00 0.00 70 1024.9
20240724132209 59 18 0.0 0.0 0.00 0.00 0.00 73 1024.9
20240724131709 58 18 0.0 0.0 0.00 0.00 0.00 74 1025.0
20240724131210 58 18 0.0 0.0 0.00 0.00 0.00 74 1025.0
20240724130709 57 18 0.0 0.0 0.00 0.00 0.00 73 1024.9
20240724130210 57 18 0.0 0.0 0.00 0.00 0.00 73 1024.8
20240724125708 57 18 0.0 0.0 0.00 0.00 0.00 73 1024.8
20240724125210 57 18 0.0 0.0 0.00 0.00 0.00 73 1024.7
20240724124709 56 18 0.0 0.0 0.00 0.00 0.00 73 1024.7
20240724124209 56 18 0.0 0.0 0.00 0.00 0.00 74 1024.7
20240724123710 56 18 0.0 0.0 0.00 0.00 0.00 73 1024.7
20240724123209 56 18 0.0 0.0 0.00 0.00 0.00 73 1024.6
20240724122208 56 18 0.0 0.0 0.00 0.00 0.00 73 1024.6
20240724121708 55 18 0.0 0.0 0.00 0.00 0.00 73 1024.5
20240724121209 55 18 0.0 0.0 0.00 0.00 0.00 73 1024.5
20240724120209 55 18 0.0 0.0 0.00 0.00 0.00 74 1024.5
20240724115709 56 18 0.0 0.0 0.00 0.00 0.00 74 1024.5
20240724115209 56 18 0.0 0.0 0.00 0.00 0.00 73 1024.5
20240724114708 56 18 0.0 0.0 0.00 0.00 0.00 73 1024.4
20240724114210 56 18 0.0 0.0 0.00 0.00 0.00 73 1024.4
20240724113709 56 18 0.0 0.0 0.00 0.00 0.00 72 1024.3
20240724113208 56 18 0.0 0.0 0.00 0.00 0.00 71 1024.3
20240724112209 56 18 0.0 0.0 0.00 0.00 0.00 71 1024.2
20240724111209 57 18 0.0 0.0 0.00 0.00 0.00 70 1024.1
20240724110208 57 18 0.0 0.0 0.00 0.00 0.00 69 1024.0
20240724105710 57 18 0.0 0.0 0.00 0.00 0.00 69 1024.0
20240724105209 57 18 0.0 0.0 0.00 0.00 0.00 69 1023.9
20240724104709 57 18 0.0 0.0 0.00 0.00 0.00 68 1023.9
20240724103709 57 18 0.0 0.0 0.00 0.00 0.00 68 1023.8
20240724103209 58 18 0.0 0.0 0.00 0.00 0.00 68 1023.8
20240724102709 58 18 0.0 0.0 0.00 0.00 0.00 68 1023.8
20240724102209 58 18 0.0 0.0 0.00 0.00 0.00 68 1023.8
20240724101208 58 18 0.0 0.0 0.00 0.00 0.00 68 1023.7
20240724100708 58 18 0.0 0.0 0.00 0.00 0.00 68 1023.6
20240724100208 58 18 0.0 0.0 0.00 0.00 0.00 68 1023.6
20240724095709 58 18 0.0 0.0 0.00 0.00 0.00 68 1023.6
20240724095209 58 18 0.0 0.0 0.00 0.00 0.00 68 1023.7
20240724094709 59 18 0.0 0.0 0.00 0.00 0.00 68 1023.7
20240724094209 59 18 0.0 0.0 0.00 0.00 0.00 67 1023.7
20240724093709 59 18 0.0 0.0 0.00 0.00 0.00 67 1023.6
20240724093208 59 18 0.0 0.0 0.00 0.00 0.00 67 1023.6
20240724092708 59 18 0.0 0.0 0.00 0.00 0.00 66 1023.5
20240724091709 60 18 0.0 0.0 0.00 0.00 0.00 66 1023.6
20240724091209 60 18 0.0 0.0 0.00 0.00 0.00 65 1023.6
20240724090708 60 18 0.0 0.0 0.00 0.00 0.00 64 1023.6
20240724090209 60 18 0.0 0.0 0.00 0.00 0.00 64 1023.7
20240724085709 60 18 0.0 0.0 0.00 0.00 0.00 64 1023.7
20240724085209 61 18 0.0 0.0 0.00 0.00 0.00 64 1023.6
20240724084708 61 18 0.0 0.0 0.00 0.00 0.00 64 1023.6
20240724084208 61 18 0.0 0.0 0.00 0.00 0.00 63 1023.5
20240724083209 61 18 0.0 0.0 0.00 0.00 0.00 62 1023.5
20240724082709 62 18 0.0 0.0 0.00 0.00 0.00 61 1023.5
20240724081708 62 18 0.0 0.0 0.00 0.00 0.00 60 1023.6
20240724081220 62 18 0.0 0.0 0.00 0.00 0.00 59 1023.5
20240724080713 62 18 0.0 0.0 0.00 0.00 0.00 57 1023.6
20240724080208 63 18 0.0 0.0 0.00 0.00 0.00 57 1023.6
20240724075713 63 18 0.0 0.0 0.00 0.00 0.00 58 1023.6
20240724074710 63 18 0.0 0.0 0.00 0.00 0.00 57 1023.5
20240724073709 63 18 0.0 0.0 0.00 0.00 0.00 56 1023.5
20240724073208 63 18 0.0 0.0 0.00 0.00 0.00 56 1023.5
20240724072708 63 18 0.0 0.0 0.00 0.00 0.00 57 1023.4
20240724071708 63 18 0.0 0.0 0.00 0.00 0.00 57 1023.5
20240724071208 63 18 0.0 0.0 0.00 0.00 0.00 57 1023.5
20240724070709 63 18 0.0 1.0 0.00 0.00 0.00 58 1023.5
20240724065709 63 18 0.0 0.0 0.00 0.00 0.00 59 1023.5
20240724065212 63 18 0.0 0.0 0.00 0.00 0.00 59 1023.4
20240724064712 63 18 0.0 0.0 0.00 0.00 0.00 60 1023.5
20240724064208 63 18 0.0 0.0 0.00 0.00 0.00 60 1023.4
20240724063710 63 18 0.0 0.0 0.00 0.00 0.00 60 1023.5
20240724062708 63 18 0.0 0.0 0.00 0.00 0.00 59 1023.5
20240724061708 63 18 0.0 0.0 0.00 0.00 0.00 59 1023.5
20240724061209 63 18 0.0 0.0 0.00 0.00 0.00 60 1023.6
20240724060709 63 18 0.0 0.0 0.00 0.00 0.00 61 1023.4
20240724060209 63 18 0.0 0.0 0.00 0.00 0.00 61 1023.5
20240724055709 63 18 0.0 0.0 0.00 0.00 0.00 62 1023.5
20240724055208 64 18 0.0 0.0 0.00 0.00 0.00 61 1023.5
20240724054709 64 18 0.0 0.0 0.00 0.00 0.00 60 1023.5
20240724054210 64 18 0.0 0.0 0.00 0.00 0.00 59 1023.5
20240724053708 64 18 0.0 0.0 0.00 0.00 0.00 58 1023.5
20240724052709 64 18 0.0 0.0 0.00 0.00 0.00 60 1023.4
20240724052208 64 18 0.0 0.0 0.00 0.00 0.00 58 1023.2
20240724051709 64 18 0.0 0.0 0.00 0.00 0.00 59 1023.2
20240724051210 64 18 0.0 0.0 0.00 0.00 0.00 60 1023.2
20240724050709 65 18 0.0 0.0 0.00 0.00 0.00 59 1023.2
20240724050208 65 18 0.0 0.0 0.00 0.00 0.00 59 1023.1
20240724045709 65 18 0.0 0.0 0.00 0.00 0.00 58 1023.1
20240724044708 66 18 0.0 0.0 0.00 0.00 0.00 58 1023.1
20240724043708 66 18 0.0 0.0 0.00 0.00 0.00 56 1023.0
20240724043209 66 18 0.0 0.0 0.00 0.00 0.00 56 1023.1
20240724042708 67 18 0.0 0.0 0.00 0.00 0.00 55 1023.0
20240724042208 67 18 0.0 0.0 0.00 0.00 0.00 55 1023.0
20240724041708 67 18 0.0 0.0 0.00 0.00 0.00 55 1023.1
20240724040708 68 18 0.0 0.0 0.00 0.00 0.00 55 1023.0
20240724035208 69 18 0.0 0.0 0.00 0.00 0.00 55 1023.0
20240724034210 69 18 0.0 0.0 0.00 0.00 0.00 53 1022.9
20240724033208 70 18 0.0 0.0 0.00 0.00 0.00 51 1022.8
20240724032708 71 18 0.0 0.0 0.00 0.00 0.00 51 1022.7
20240724031708 71 18 0.0 0.0 0.00 0.00 0.00 50 1022.7
20240724030708 72 18 0.0 0.0 0.00 0.00 0.00 49 1022.5
20240724030208 73 18 0.0 0.0 0.00 0.00 0.00 48 1022.5
20240724025709 73 18 0.0 0.0 0.00 0.00 0.00 48 1022.4
20240724025208 74 18 0.0 0.0 0.00 0.00 0.00 48 1022.4
20240724024708 74 18 0.0 0.0 0.00 0.00 0.00 47 1022.5
20240724024208 75 18 0.0 0.0 0.00 0.00 0.00 46 1022.4
20240724023708 75 18 0.0 0.0 0.00 0.00 0.00 46 1022.4
20240724022709 76 18 0.0 0.0 0.00 0.00 0.00 43 1022.3
20240724022208 76 18 0.0 0.0 0.00 0.00 0.00 43 1022.3
20240724021708 77 18 0.0 0.0 0.00 0.00 0.00 42 1022.3
20240724021208 77 18 0.0 0.0 0.00 0.00 0.00 42 1022.3
20240724020708 78 18 0.0 0.0 0.00 0.00 0.00 42 1022.3
20240724020208 78 18 0.0 0.0 0.00 0.00 0.00 42 1022.3
20240724015209 80 18 0.0 0.0 0.00 0.00 0.00 41 1022.3
20240724014708 80 18 0.0 0.0 0.00 0.00 0.00 40 1022.2
20240724014208 81 18 0.0 0.0 0.00 0.00 0.00 40 1022.2
20240724013709 81 18 0.0 0.0 0.00 0.00 0.00 39 1022.1
20240724013209 82 18 0.0 0.0 0.00 0.00 0.00 37 1022.1
20240724012708 82 18 0.0 0.0 0.00 0.00 0.00 37 1022.1
20240724011708 83 18 0.0 0.0 0.00 0.00 0.00 34 1022.0
20240724011212 84 18 0.0 0.0 0.00 0.00 0.00 33 1022.0
20240724010208 85 18 0.0 0.0 0.00 0.00 0.00 33 1022.0
20240724005708 86 18 0.0 0.0 0.00 0.00 0.00 31 1021.9
20240724005208 86 18 0.0 0.0 0.00 0.00 0.00 29 1021.8
20240724004708 86 18 0.0 0.0 0.00 0.00 0.00 28 1021.8
20240724004208 87 18 0.0 0.0 0.00 0.00 0.00 28 1021.8
20240724003709 87 18 0.0 0.0 0.00 0.00 0.00 27 1021.7
20240724002708 87 18 0.0 0.0 0.00 0.00 0.00 26 1021.7